レモン彗星

C/2018 C2 ( Lemmon )

English version
Home page
Updated on October 28, 2018

---------------------------------------------------------------------

・ プロフィール

発見日 2018年2月5日
発見光度 19.9等
発見者 Mount Lemmon Survey

・ 写真集

・ 軌道要素

Epoch 2018 June 11.0 TT = JDT 2458280.5
T 2018 June 2.22199 TT                                  MPCW
q   1.9565137            (2000.0)            P               Q
z  -0.0009365      Peri.  134.13803     -0.57781304     +0.58838389
 +/-0.0000007      Node    91.13907     -0.81109406     -0.49112596
e   1.0018322      Incl.   34.45377     +0.09087637     -0.64233923
From 1619 observations 2018 Jan. 28-Sept. 22, mean residual 0".3.

・ 星図

・ 光度変化

        m1 = 8.5 + 5 logΔ + 22.0 log r(t - 30)

---------------------------------------------------------------------

軌道要素はM.P.E.C. 2018-U70に掲載されたものです。
星図はステラナビゲータ Ver.10 (アストロアーツ) で作成したものです。
光度グラフはComet for Windowsで作成したものです。

---------------------------------------------------------------------

Copyright(C) Seiichi Yoshida (comet@aerith.net). All rights reserved.